User: anonymous   Login
Location: Noordwijk
(52.2400°N, 4.4500°E)
Time: 07:37:58
(UTC+00:00)
Language:

XW-2A - Orbit

View from above orbital plane
View from above orbital plane
View from above satellite
View from above satellite

Ground track
Ground track

The orbit data is extracted from the following two-line orbital elements,

1 40903U 15049E   22330.85274534  .00032892  00000-0  36644-3 0  9993
2 40903  97.1563  30.2792 0006363 225.6769 247.0533 15.62751589404536
Epoch (UTC): 26 November 2022 20:27:57
Eccentricity: 0.0006363
inclination: 97.1563°
perigee height: 375 km
apogee height: 384 km
right ascension of ascending node: 30.2792°
argument of perigee: 225.6769°
revolutions per day: 15.62751589
mean anomaly at epoch: 247.0533°
orbit number at epoch: 40453

The dashed part of the orbit path shows where the satellite is in the earth's shadow,  

DLR